Wind_Speed
33 32 31 31 30 29 27 25 23 22 23 22 22 23 24 25 26 27 27 24 21 20 19 19 19 19 21 24 25 26 28 28 27 27 27 27 26 27
36 35 34 33 32 31 30 28 25 23 23 24 22 22 23 25 26 26 23 21 19 20 20 21 22 23 24 26 27 28 29 29 29 27 26 26 26 27
40 38 36 35 34 34 32 30 27 24 22 24 22 21 23 25 26 27 26 23 23 23 23 23 24 25 26 28 29 31 31 31 30 29 28 28 28 30
44 42 40 37 35 34 33 30 28 25 22 22 22 21 22 24 27 29 28 27 26 26 25 25 25 26 27 28 29 30 31 30 30 29 29 30 30 30
48 44 42 39 36 35 33 31 29 26 23 22 22 21 21 23 25 28 29 28 28 27 26 26 26 26 25 25 25 26 27 27 27 26 26 27 28 28
49 46 42 41 39 37 34 31 29 27 24 22 22 20 20 21 23 25 27 27 27 27 26 26 25 24 23 23 23 23 22 21 21 21 22 23 25 26
50 47 43 41 40 38 36 33 30 27 25 23 22 20 18 18 21 23 25 25 26 26 26 25 25 24 23 23 23 22 22 21 21 21 22 22 21 21
52 48 45 43 42 40 38 35 31 27 24 23 22 20 18 17 19 21 22 23 24 24 25 25 25 24 24 23 23 23 22 22 22 21 21 20 19 18
55 50 47 44 43 42 40 37 32 28 24 23 22 19 17 16 16 18 19 21 21 23 24 25 25 24 23 23 23 24 24 23 21 20 19 18 17 17
60 54 50 47 44 43 42 39 35 29 25 23 21 18 16 15 15 17 18 19 20 20 20 21 22 23 22 22 22 22 21 20 19 18 17 17 17 16
62 58 54 51 46 44 43 41 37 32 26 23 20 17 15 15 15 16 17 18 19 19 19 20 20 20 21 21 21 20 19 18 17 16 16 16 15 14
60 59 56 54 49 45 44 42 39 34 28 23 19 16 14 14 14 15 15 15 17 19 19 19 20 20 20 20 19 17 16 15 14 14 13 12 12 12
55 57 56 54 52 47 45 44 42 37 30 24 20 16 14 13 13 14 14 14 16 18 18 19 20 20 20 18 16 15 14 13 12 11 10 11 11 13
50 54 54 52 51 49 46 46 44 39 32 25 20 17 15 14 14 14 14 14 15 16 17 18 19 18 17 16 15 14 13 12 11 11 12 13 15 16
46 52 54 50 49 48 47 46 44 40 33 28 23 19 16 14 14 14 14 14 15 16 17 18 19 18 17 16 15 14 13 12 12 13 15 16 18 20
41 49 54 52 49 48 47 45 43 39 34 29 25 21 17 15 15 15 15 15 16 18 19 19 19 18 18 17 16 14 13 13 15 17 19 21 22 24
33 46 51 53 50 48 46 44 42 38 33 29 26 22 19 17 17 17 17 18 19 20 20 20 20 20 19 18 17 16 16 17 19 21 22 24 26 28
27 40 48 50 50 47 45 44 40 35 32 30 27 24 21 20 20 20 20 20 21 22 22 22 22 21 20 20 19 19 20 21 22 24 25 26 28 30
26 36 46 49 50 47 46 43 39 34 32 30 28 26 23 23 22 23 23 23 24 23 24 24 24 23 22 22 21 22 22 23 24 25 27 28 30 31
28 34 44 47 50 47 44 43 39 36 33 31 28 26 25 25 25 25 25 25 24 24 24 25 25 24 23 22 22 23 24 24 25 27 29 29 29 29
28 32 40 45 47 46 43 40 38 35 34 32 29 28 27 27 27 27 27 26 25 25 25 25 25 24 24 24 24 24 24 25 27 28 28 28 28 28
27 30 37 44 44 42 41 39 37 35 33 32 30 30 29 29 28 28 28 26 25 25 25 25 25 25 25 25 25 25 26 27 27 28 28 28 28 28
27 30 35 42 41 39 38 37 35 34 33 32 32 31 30 30 30 29 28 26 25 25 25 25 25 26 26 25 25 26 27 27 28 28 28 28 28 29
Wind_Direction
261 264 266 270 272 276 279 280 284 288 290 290 281 268 257 251 249 247 245 243 241 239 241 243 243 242 241 239 241 244 247 249 251 251 250 250 250 248
260 262 265 268 270 271 274 276 280 284 287 290 286 272 259 250 248 248 245 239 236 239 241 243 244 244 245 245 247 250 251 251 252 252 252 251 250 249
258 260 263 266 267 268 270 272 275 278 284 288 287 273 259 250 245 245 242 238 235 238 242 244 246 248 249 250 250 250 251 252 252 252 252 252 253 252
256 258 259 263 263 263 265 268 271 273 278 284 284 275 261 251 244 241 239 236 236 238 242 246 249 251 252 253 253 252 252 252 252 252 252 253 255 255
251 254 255 256 258 259 259 263 265 267 272 279 282 277 263 251 243 240 238 236 236 239 243 247 251 254 256 255 253 252 250 248 247 248 251 253 256 257
247 249 250 250 252 253 254 257 259 262 265 273 278 277 267 253 244 240 237 236 238 241 245 249 252 254 255 253 248 245 243 242 244 247 250 253 256 256
243 244 246 246 246 248 250 251 254 257 260 267 273 275 269 257 248 242 239 238 240 244 247 250 250 250 252 249 244 241 241 241 244 248 251 252 252 251
241 241 242 243 243 243 245 247 248 253 257 262 268 271 267 258 249 244 243 241 243 245 248 248 249 249 250 244 238 236 237 239 242 245 246 245 246 246
238 237 237 238 239 240 240 242 245 249 254 258 263 268 265 257 250 247 244 244 244 245 248 248 248 249 245 240 237 234 236 237 237 239 240 241 241 241
235 234 233 234 237 237 237 239 242 246 250 255 258 261 261 258 251 245 243 243 246 249 247 246 242 238 235 233 231 228 228 229 230 233 236 238 240 242
232 230 231 231 234 235 234 236 238 241 246 252 254 255 256 254 248 242 243 248 249 250 247 243 236 231 225 220 217 217 219 224 230 233 235 238 242 246
226 225 226 229 231 233 233 233 234 236 242 247 249 250 250 246 242 239 240 246 250 245 241 236 227 220 214 211 207 210 218 223 226 228 231 236 244 252
218 215 218 223 228 230 231 230 229 232 236 241 243 245 244 240 237 237 238 243 245 242 237 226 214 209 209 207 205 208 213 217 218 221 231 244 255 262
209 206 208 215 221 226 228 227 226 227 230 235 237 240 241 239 237 237 238 243 243 238 226 211 202 199 199 198 198 202 209 214 220 232 245 256 264 270
201 199 199 204 212 218 221 221 221 221 225 230 234 237 239 240 238 235 234 234 232 222 210 197 192 192 193 196 199 204 212 223 237 251 261 268 273 276
200 194 193 196 204 211 214 216 216 217 220 225 230 234 236 235 231 227 224 218 211 205 200 198 198 196 196 200 207 215 226 240 251 260 268 275 279 283
205 197 192 194 199 205 209 211 212 213 216 222 227 230 229 225 221 217 212 206 203 200 201 202 202 202 203 208 218 229 240 251 261 268 275 280 284 286
209 202 196 194 197 202 205 208 209 210 213 217 222 223 220 217 215 211 207 204 203 202 203 205 207 209 213 219 229 239 250 260 268 274 278 282 285 287
212 204 198 195 194 200 203 205 206 207 210 214 218 217 213 211 209 206 204 203 204 206 207 209 212 216 223 230 238 249 259 266 272 277 281 284 286 288
213 206 200 195 193 195 199 201 202 204 207 211 212 210 206 205 203 202 202 204 206 208 211 214 219 224 231 240 249 257 264 270 275 279 282 284 285 286
212 209 202 195 191 190 194 196 198 200 203 206 205 203 201 201 201 201 203 206 209 212 216 221 227 234 241 249 256 262 268 274 278 280 281 282 283 285
208 205 200 192 186 185 189 192 194 197 198 198 198 198 199 199 200 202 204 207 211 216 222 228 235 242 248 255 261 267 273 277 278 278 279 280 283 287
193 189 185 184 181 181 186 189 191 192 193 193 194 195 197 197 200 203 207 211 216 221 227 234 241 248 253 259 265 271 275 276 277 278 280 281 284 287
Height
5764 5765 5767 5767 5768 5769 5770 5772 5772 5769 5766 5764 5763 5763 5763 5764 5766 5767 5769 5772 5774 5776 5778 5780 5783 5786 5789 5793 5796 5799 5802 5804 5806 5808 5810 5812 5813 5815
5753 5755 5758 5759 5760 5761 5762 5763 5764 5764 5761 5758 5758 5757 5757 5758 5759 5761 5763 5765 5768 5771 5773 5776 5778 5781 5784 5787 5789 5792 5794 5796 5799 5800 5802 5804 5806 5808
5742 5745 5748 5750 5751 5752 5754 5755 5756 5757 5756 5753 5751 5751 5750 5751 5753 5754 5757 5760 5762 5765 5768 5770 5773 5775 5778 5780 5782 5784 5786 5788 5790 5792 5794 5796 5798 5800
5730 5733 5737 5740 5742 5743 5745 5747 5748 5750 5749 5747 5745 5744 5744 5744 5746 5748 5751 5754 5757 5759 5762 5765 5767 5769 5771 5773 5775 5776 5778 5780 5782 5784 5786 5788 5790 5791
5717 5721 5725 5729 5732 5734 5737 5738 5740 5742 5742 5741 5739 5738 5737 5738 5739 5742 5744 5747 5750 5753 5755 5758 5760 5763 5764 5766 5768 5769 5771 5773 5775 5776 5779 5781 5782 5784
5703 5708 5712 5717 5721 5725 5727 5730 5732 5734 5735 5735 5733 5732 5732 5732 5733 5735 5738 5741 5744 5746 5749 5751 5754 5755 5757 5759 5761 5763 5764 5767 5769 5771 5773 5774 5776 5777
5689 5694 5700 5704 5709 5714 5717 5720 5723 5726 5727 5728 5728 5727 5726 5726 5728 5729 5732 5734 5737 5740 5742 5744 5746 5748 5750 5752 5755 5757 5759 5761 5763 5765 5767 5768 5769 5770
5674 5681 5687 5692 5697 5703 5707 5711 5715 5718 5720 5721 5722 5721 5721 5721 5722 5724 5726 5728 5731 5733 5735 5737 5739 5741 5743 5746 5748 5751 5753 5756 5758 5759 5761 5762 5763 5764
5657 5666 5673 5679 5685 5691 5697 5701 5706 5710 5713 5714 5715 5715 5715 5716 5717 5718 5720 5722 5724 5726 5728 5730 5732 5734 5737 5739 5742 5745 5747 5750 5752 5754 5756 5757 5758 5759
5640 5650 5659 5666 5673 5680 5686 5691 5697 5702 5705 5708 5709 5709 5709 5710 5711 5713 5715 5716 5718 5720 5722 5723 5726 5728 5731 5734 5736 5739 5742 5744 5747 5750 5751 5752 5753 5754
5621 5634 5644 5653 5661 5668 5675 5681 5687 5693 5697 5701 5702 5703 5703 5704 5706 5708 5710 5711 5712 5714 5716 5718 5720 5723 5725 5728 5731 5734 5737 5740 5743 5745 5747 5748 5749 5750
5604 5617 5629 5639 5648 5656 5664 5671 5678 5684 5690 5693 5695 5696 5698 5699 5701 5703 5705 5706 5708 5709 5711 5713 5716 5718 5721 5724 5727 5731 5734 5737 5739 5741 5742 5744 5745 5746
5586 5601 5614 5625 5635 5644 5652 5660 5668 5676 5682 5686 5688 5690 5692 5694 5696 5698 5700 5702 5704 5705 5707 5709 5711 5714 5718 5721 5725 5728 5731 5734 5736 5738 5739 5740 5741 5742
5573 5587 5601 5613 5623 5632 5641 5649 5658 5667 5673 5678 5682 5684 5686 5688 5691 5693 5695 5697 5699 5702 5704 5706 5709 5712 5715 5719 5723 5726 5729 5731 5733 5735 5736 5737 5737 5737
5563 5576 5589 5601 5612 5621 5630 5639 5649 5657 5665 5670 5674 5678 5680 5683 5686 5688 5691 5694 5696 5699 5702 5704 5707 5710 5714 5717 5721 5724 5726 5728 5730 5731 5731 5732 5732 5732
5555 5565 5578 5590 5601 5611 5620 5630 5639 5649 5656 5663 5667 5671 5675 5678 5681 5684 5687 5690 5693 5696 5700 5703 5706 5709 5712 5715 5718 5720 5723 5724 5725 5726 5726 5725 5725 5724
5550 5558 5569 5581 5591 5601 5612 5622 5631 5640 5649 5655 5661 5666 5670 5674 5677 5680 5683 5687 5691 5695 5698 5701 5704 5706 5709 5711 5714 5716 5718 5719 5719 5719 5719 5718 5717 5716
5545 5552 5561 5572 5583 5593 5604 5614 5624 5633 5641 5648 5655 5660 5665 5669 5672 5676 5680 5683 5688 5692 5696 5698 5701 5703 5706 5707 5709 5710 5711 5712 5712 5712 5711 5710 5709 5708
5540 5547 5556 5566 5576 5586 5597 5608 5618 5627 5635 5642 5649 5655 5660 5664 5668 5672 5676 5680 5684 5688 5692 5695 5697 5699 5701 5703 5704 5705 5705 5705 5705 5704 5703 5702 5701 5699
5536 5542 5550 5559 5570 5581 5592 5602 5612 5621 5629 5636 5643 5650 5655 5659 5664 5668 5672 5676 5680 5683 5687 5690 5692 5695 5696 5698 5698 5698 5698 5698 5697 5696 5695 5693 5692 5690
5531 5537 5545 5555 5566 5577 5587 5597 5607 5616 5624 5631 5638 5645 5650 5655 5660 5664 5668 5672 5676 5679 5682 5685 5687 5689 5690 5691 5692 5691 5691 5690 5689 5688 5686 5685 5683 5681
5526 5533 5541 5553 5564 5574 5584 5594 5603 5612 5619 5627 5634 5640 5646 5652 5656 5661 5665 5668 5672 5675 5677 5680 5682 5683 5684 5684 5684 5684 5683 5682 5681 5679 5678 5676 5674 5671
5524 5531 5540 5552 5563 5573 5583 5593 5601 5609 5616 5623 5630 5636 5642 5648 5653 5657 5661 5664 5667 5670 5672 5675 5676 5677 5677 5677 5677 5676 5674 5673 5672 5670 5669 5667 5665 5662